Showing default

HG-03, 61503

Orbit data source: Space-Track

HG-03, 61503 is a payload satellite owned by CNSA (CN) in GEO that was launched on Thu, 10 Oct 2024 UTC via a CHANG ZHENG 3B launch vehicle from the Xichang Space Center, China (XSC). Payload-class satellites include a variety of spacecraft equipped with specific instruments for various scientific and technological missions. These include communications satellites like Starlink; space stations such as the ISS; scientific satellites like the Hubble; Earth observation satellites from companies like Planet Labs, Umbra, and HawkEye 360; GPS; miniature CubeSats for education and research; and military/defense satellites.

Loading next visibility...
Identifier
61503, 2024-181A
Orbit
GEO
Country
Flag of CNCN / PRC
Related business
Manufacturer
CAST
Mission
Operational Civil Communications
Bus & Motor
DFH-4?, FY-25?
Mass
~4,000 kg wet, ~2,000 kg dry
Launch date (UTC)
2024-10-10 (1 year ago)
Launch vehicle
CHANG ZHENG 3B
Launch site
Xichang Space Center, China (XSC)
Object type
Payload
Rocket body
Debris
Shape & HBR
Box + 2 Pan, 10.0 m
Radar Cross Section
17.671 m², Large (>1 m²)

Expand to show TLE details & history
Last TLE update: 1 day ago

TLE from 1 day ago
0 HG-03
1 61503U 24181A   25293.03695565 -.00000240  00000-0  00000-0 0  9998
2 61503   0.0198 133.1770 0000865 261.8348 289.9458  1.00273417  4417
Epoch: 2025-10-20T00:53Z
TLE epoch observation values (Epoch: 2025-10-20T00:53:12.968Z)
Latitude
0.01306°
Longitude
-77.12665°
Altitude
35,784.371 km
Speed
3.075 km/s
True Right ascension
21h 39m 41s
True Declination
0° 00' 47"
Sunlit
Object was in daylight at epoch
Visualization orbit readout
Latitude
Unknown
Longitude
Unknown
Altitude
Unknown
Speed
Unknown
Apparent Right ascension
Unknown
Apparent Declination
Unknown
Sunlit
N/A
Visualization observer readout
Local Sidereal Time
04:50:24
Azimuth
Unknown
Elevation
Unknown
Doppler factor
Unknown
Orbital elements
Apogee altitude
35,790.855 km
Perigee altitude
35,783.561 km
Semi-major axis
42,165.345 km
Eccentricity
0.00009
Inclination
0.0198°
RAAN
133.177°
Arg. of periapsis
261.8348°
True anomaly
289.93648°
Mean anomaly
289.9458°
Eccentric anomaly
289.94114°
Mean motion
0.25067 °/min
Orbital period
1,436.13 mins
BSTAR
0
Loading maneuver chart data...
Computing Atmospheric mass density...
Loading historical data...
Loading historical data...
Loading historical data...
Loading historical data...
Loading historical data...
Loading historical data...
Loading historical data...
Other satellites on launch #181 in the year 2024 (2024-10-10 UTC)

Documentation

Showing up to 5 results
|